Simultaneous Nadir Overpasses (SNOs) Predictions

Prediction of SNOs between AQUA and METOP-A Satellite Orbit:

Table of predicted SNOs for the next 14.0 days since TLE Epoch: 5/24/2014
Index Date (AQUA) Time (AQUA) Lat,Lon (AQUA) SZA (AQUA ) Date (METOP-A) Time (METOP-A) Lat,Lon (METOP-A) SZA (METOP-A ) Distance(km) Time Diff (sec)
1 05/25/2014 07:17:02 -73.83,-114.90 127.14 05/25/2014 07:16:08 -73.85,-114.92 127.12 2.05 54
2 05/25/2014 08:06:31 73.90, 52.59 52.92 05/25/2014 08:06:47 73.92, 52.57 52.94 2.43 16
3 05/25/2014 08:56:09 -74.55,-141.30 126.38 05/25/2014 08:57:15 -74.56,-138.45 126.46 84.26 66
4 05/28/2014 02:51:13 -73.84, -48.47 127.61 05/28/2014 02:50:31 -73.83, -48.56 127.62 3.26 42
5 05/28/2014 03:40:42 73.91, 119.01 52.46 05/28/2014 03:41:09 73.94, 119.04 52.49 3.45 27
6 05/30/2014 22:25:23 -73.88, 17.91 128.00 05/30/2014 22:24:52 -73.85, 17.90 128.03 3.35 31
7 05/30/2014 23:14:51 73.90,-174.51 52.02 05/30/2014 23:15:31 73.91,-174.62 52.03 3.63 40
8 06/02/2014 17:09:53 73.12, -81.69 50.83 06/02/2014 17:08:48 73.09, -84.74 50.91 98.84 65
9 06/02/2014 17:59:33 -73.88, 84.35 128.37 06/02/2014 17:59:14 -73.86, 84.35 128.39 2.69 19
10 06/02/2014 18:49:01 73.91,-108.08 51.66 06/02/2014 18:49:53 73.92,-108.18 51.66 3.25 52
11 06/05/2014 12:44:12 73.63, -16.29 51.04 06/05/2014 12:43:01 73.54, -17.31 51.00 33.68 71
12 06/05/2014 13:33:42 -73.86, 150.85 128.72 06/05/2014 13:33:36 -73.86, 150.78 128.71 2.34 6
13 06/05/2014 14:23:11 73.95, -41.70 51.37 06/05/2014 14:24:14 73.97, -41.64 51.38 2.97 63




NCC Satellite Simultaneous Nadir Overpasses (SNOs) Prediction Service
